Location: ????
(32.3339°N, 35.1116°E)
Time: 14:19:27
(UTC+00:00)

Daily predictions for brighter satellites

Satellite Brightness Start Highest point End
(mag) Time Altitude Azimuth Time Altitude Azimuth Time Altitude Azimuth
SMAP 3.2 14:53:59 10° SSE 14:58:30 54° ENE 15:03:02 10° N
Cosmos 1634 Rocket 4.1 14:53:29 10° S 14:59:47 79° E 15:06:08 10° N
CZ-2C R/B 1.5 14:57:18 10° WSW 15:01:36 71° SSE 15:05:46 10° ENE
ARGOS 4.5 14:58:43 10° ESE 15:02:15 18° ENE 15:05:47 10° NNE
Intercosmos 25 4.4 14:54:35 10° N 15:02:19 69° E 15:06:57 10° SSE
CZ-4B DEB 4.5 14:59:40 10° SE 15:04:54 47° ENE 15:10:09 10° N
Cosmos 2208 Rocket 4.2 15:03:21 10° S 15:08:35 57° ESE 15:13:53 10° NNE
Meteor 1-25 Rocket 4.4 15:03:57 10° N 15:09:33 80° W 15:15:11 10° S
Cosmos 2026 Rocket 3.9 15:04:09 10° N 15:10:14 71° E 15:16:15 10° SSE
CZ-2C R/B 3.8 15:06:06 10° S 15:10:57 55° W 15:15:40 10° NNW
Cosmos 2278 4.5 15:06:50 10° N 15:11:47 29° ENE 15:16:40 10° ESE
MOS 1-B Rocket 4.4 15:06:01 10° NNE 15:12:15 62° ESE 15:19:29 10° S
Cosmos 841 Rocket 4.5 15:07:19 10° SW 15:12:18 48° WNW 15:17:16 10° N
USA 229 DEB 4.0 15:06:18 10° NNW 15:13:54 88° ENE 15:21:50 10° SSE
USA 229 4.0 15:06:24 10° NNW 15:14:00 87° ENE 15:21:55 10° SSE
Okean O Rocket 2.9 15:13:11 10° ESE 15:16:20 19° ENE 15:19:31 10° NNE
H-2A R/B 2.4 15:11:42 10° SE 15:16:33 41° ENE 15:21:17 10° N
Cosmos 1328 Rocket 3.8 15:14:40 10° SSE 15:18:55 49° E 15:23:12 10° NNE
Cosmos 1602 4.3 15:15:57 10° NNW 15:19:46 62° W 15:23:36 10° S
BREEZE-M R/B 4.5 15:16:48 10° WNW 15:20:50 56° SW 15:33:09 10° SE
Cosmos 1939 Rocket 3.4 15:18:32 10° S 15:22:37 64° W 15:26:40 10° NNW
USA 234 3.9 15:17:01 10° E 15:22:45 34° NE 15:28:28 10° NNW
Cosmos 1666 Rocket 3.8 15:19:58 10° N 15:24:15 48° E 15:28:28 10° SSE
X-37B 0.6 15:22:24 10° WSW 15:25:14 63° NW 15:27:15 17° NE
GPS 2-04 Rocket1 2.7 15:21:15 10° WNW 15:25:23 75° NNE 15:28:57 13° E
Cosmos 1937 Rocket 3.7 15:21:05 10° NNW 15:26:23 78° WSW 15:31:39 10° S
Meteor 2-21 Rocket 4.4 15:22:21 10° N 15:28:24 67° E 15:34:23 10° SSE
CZ-2C R/B 2.6 15:25:28 10° NNE 15:30:35 61° E 15:35:41 10° S
Cosmos 372 Rocket 3.9 15:26:12 10° NNW 15:31:27 71° ENE 15:36:40 10° SSE
Cosmos 2180 Rocket 4.5 15:27:04 10° S 15:33:22 69° E 15:39:37 10° NNE
CZ-4B R/B 3.4 15:29:08 10° SE 15:34:16 44° ENE 15:39:20 10° N
ISS -2.3 15:32:19 10° NNW 15:34:55 20° NE 15:35:19 20° NE
Meteor 2-6 Rocket 4.2 15:30:27 10° S 15:36:15 78° E 15:41:54 10° N
CZ-2D R/B 3.1 15:34:50 10° SSE 15:38:40 85° ENE 15:42:29 10° N
Cosmos 1500 3.9 15:36:19 10° NNW 15:39:57 53° W 15:43:34 10° S
PAYLOAD B 4.2 15:34:28 10° SSE 15:40:03 78° ENE 15:45:40 10° N
SKYMED 2 3.5 15:36:14 10° NNE 15:40:35 79° E 15:44:54 10° S
APEX 3.1 15:37:41 10° SSW 15:42:04 80° ESE 15:44:45 17° NNE
Sich 1 4.3 15:41:24 10° NNW 15:45:28 43° W 15:49:35 10° SSW
deb Chang Zheng 4 3.6 15:45:17 10° SSE 15:49:28 54° ENE 15:53:41 10° N
SL-24 R/B - RUBIN 2 3.4 15:47:34 10° NNW 15:51:57 88° ENE 15:56:15 10° SSE
BREEZE-M DEB (TANK) 4.4 15:48:22 10° NW 15:53:24 43° SW 15:55:53 10° SSE
H-2A R/B 4.0 15:55:26 15° SE 15:55:26 15° SE 15:56:50 10° SE
Cosmos 1515 Rocket 3.5 15:59:01 10° S 16:03:28 87° E 16:07:36 12° N
Meteor 1-10 Rocket 4.3 15:59:39 10° S 16:05:28 80° W 16:11:12 10° N
Lacrosse 5 rocket 3.5 16:02:56 10° N 16:03:35 13° N 16:03:35 13° N
Genesis I 4.1 16:04:05 10° S 16:06:55 31° SE 16:06:55 31° SE
Cosmos 1666 3.9 16:05:31 10° NNW 16:09:02 42° W 16:12:33 10° SSW
Meteor 1-11 Rocket 3.8 16:08:56 10° N 16:14:30 55° E 16:20:10 10° SSE
Cosmos 921 Rocket 4.5 16:13:19 10° SW 16:17:07 34° WNW 16:20:59 10° N
SL-08 RB Rocket 3.6 16:12:53 10° SSE 16:17:29 68° ENE 16:22:04 10° N
Cosmos 2322 Rocket 3.7 16:16:21 10° N 16:18:22 20° NNE 16:18:22 20° NNE
Tiangong 1.9 16:18:21 10° WSW 16:20:44 48° SW 16:20:44 48° SW
CZ-4C R/B 3.1 16:15:52 10° NNW 16:23:43 87° ENE 16:32:28 10° SSE
Feng Yun 1-1 Rocket 4.3 16:18:10 10° SSE 16:24:01 67° ENE 16:29:51 10° N
Cosmos 1980 Rocket 3.6 16:20:38 10° NW 16:25:49 39° WSW 16:30:59 10° S
Cosmos 2298 Rocket 3.9 16:20:43 10° N 16:26:01 69° ENE 16:31:19 10° SSE
Aureole 3 Rocket 3.0 16:23:58 10° S 16:27:44 85° W 16:29:36 37° N
DMSP B5D2-2 4.1 16:34:06 32° N 16:36:35 79° WNW 16:41:49 10° SSW
Cosmos 2266 Rocket 4.2 16:31:37 10° N 16:38:01 75° W 16:44:24 10° S
NOAA 15 4.4 16:33:46 10° SSE 16:39:02 79° ENE 16:44:20 10° N
Cosmos 1818 3.4 16:33:49 10° NNW 16:39:18 81° ENE 16:39:42 75° ESE
SL-16 R/B 2.6 16:34:54 10° NNW 16:39:04 47° NNE 16:39:04 47° NNE
CZ-2C R/B 2.2 16:37:04 10° W 16:40:15 45° WNW 16:40:15 45° WNW
ARGOS 4.1 16:36:52 10° S 16:42:05 48° W 16:47:17 10° NNW
Okean O Rocket 3.5 16:48:33 10° SSW 16:52:26 30° W 16:56:21 10° NW
Cosmos 44 Rocket 4.4 16:56:21 10° NW 16:59:24 37° NW 16:59:24 37° NW
USA 234 3.6 17:02:24 33° SSE 17:05:25 62° SW 17:11:54 10° NW
